Regional Weather Roundup
Issued by NWS

Home | Current Version | Previous Version | Graphics & Text | Print | Product List | Glossary On
Versions: 1 2 3 4 5 6 7 8 9 10 11 12 13 14 15 16 17 18 19 20 21 22 23 24 25 26 27 28 29 30 31 32 33 34 35 36 37 38 39 40 41 42 43 44 45 46 47 48 49 50
472
ASUS43 KMKX 181221
RWRWI

WISCONSIN REGIONAL WEATHER ROUNDUP
NATIONAL WEATHER SERVICE MILWAUKEE/SULLIVAN WI
700 AM CDT WED OCT 18 2017

NOTE: "FAIR" INDICATES FEW OR NO CLOUDS BELOW 12,000 FEET WITH NO
SIGNIFICANT WEATHER AND/OR OBSTRUCTIONS TO VISIBILITY.

WIZ001-002-006>008-014>016-023>028-181300-
NORTHWEST WISCONSIN

CITY           SKY/WX    TMP DP  RH WIND       PRES   REMARKS
SUPERIOR ARPT  CLEAR     50  44  78 SW8       29.75F
6HR MIN TEMP:  38; 6HR MAX TEMP:  53;

ASHLAND        CLEAR     50  42  74 SE3       29.79F
6HR MIN TEMP:  50; 6HR MAX TEMP:  58;

HAYWARD        CLEAR     53  43  68 S10       29.82F
6HR MIN TEMP:  49; 6HR MAX TEMP:  55;

SIREN          CLEAR     51  43  75 S10       29.80F
6HR MIN TEMP:  48; 6HR MAX TEMP:  58;

CUMBERLAND     CLEAR     45  41  87 SE7       29.84F
RICE LAKE      CLEAR     44  42  91 SE5       29.88F
6HR MIN TEMP:  44; 6HR MAX TEMP:  51;

CHETEK         CLEAR     45  43  94 E9        29.88S
6HR MIN TEMP:  44; 6HR MAX TEMP:  52;

LADYSMITH      CLEAR     49  44  81 S7        29.91S
6HR MIN TEMP:  48; 6HR MAX TEMP:  53;

EAU CLAIRE     CLEAR     50  44  80 S9        29.89F
6HR MIN TEMP:  46; 6HR MAX TEMP:  51;

MENOMONIE      CLEAR     45  42  91 E6        29.89F
6HR MIN TEMP:  45; 6HR MAX TEMP:  55;

NEW RICHMOND   CLEAR     49  42  78 S10       29.84F
6HR MIN TEMP:  49; 6HR MAX TEMP:  54;

OSCEOLA        CLEAR     50  43  79 SE5       29.85F
6HR MIN TEMP:  49; 6HR MAX TEMP:  54;

$$

WIZ003>005-009-010-017-018-181300-
NORTH CENTRAL WISCONSIN

CITY           SKY/WX    TMP DP  RH WIND       PRES   REMARKS
MANITOWISH WTR CLEAR     45  45 100 S7        29.89F
6HR MIN TEMP:  44; 6HR MAX TEMP:  49;

ARBOR VITAE    CLEAR     49  45  85 S6        29.90F
6HR MIN TEMP:  49; 6HR MAX TEMP:  52;

WOODRUFF       CLEAR     49  45  85 S6        29.90F
6HR MIN TEMP:  49; 6HR MAX TEMP:  52;

RHINELANDER    CLEAR     49  44  83 SW9       29.93F
6HR MIN TEMP:  49; 6HR MAX TEMP:  54;

EAGLE RIVER    CLEAR     47  42  82 S5        29.91F
6HR MIN TEMP:  43; 6HR MAX TEMP:  50;

LAND O LAKES   CLEAR     46  42  88 S3        29.91F
6HR MIN TEMP:  46; 6HR MAX TEMP:  49;

PHILLIPS       CLEAR     47  44  88 S7        29.89F
6HR MIN TEMP:  46; 6HR MAX TEMP:  51;

TOMAHAWK       CLEAR     40  39  96 CALM      29.93F
6HR MIN TEMP:  39; 6HR MAX TEMP:  46;

MEDFORD        CLEAR     43  41  91 S8        29.92F
6HR MIN TEMP:  43; 6HR MAX TEMP:  53;

MERRILL        CLEAR     48  44  84 S5        29.95F
6HR MIN TEMP:  39; 6HR MAX TEMP:  54;

$$

WIZ029-030-035-036-043>047-181300-
CENTRAL WISCONSIN

CITY           SKY/WX    TMP DP  RH WIND       PRES   REMARKS
WAUSAU         CLEAR     48  43  82 S6        29.95S
6HR MIN TEMP:  46; 6HR MAX TEMP:  52;

MOSINEE        CLEAR     45  43  93 S6        29.98F
MARSHFIELD     CLEAR     45  40  82 S7        29.95S
6HR MIN TEMP:  44; 6HR MAX TEMP:  52;

STEVENS POINT  CLEAR     47  42  83 S8        29.98F
6HR MIN TEMP:  45; 6HR MAX TEMP:  48;

WAUPACA        CLEAR     47  43  85 S6        30.01S
6HR MIN TEMP:  47; 6HR MAX TEMP:  52;

WAUTOMA        CLEAR     37  37 100 CALM      30.02F
6HR MIN TEMP:  37; 6HR MAX TEMP:  42;

WISC RAPIDS    CLEAR     49  43  80 S7        29.99F
6HR MIN TEMP:  48; 6HR MAX TEMP:  52;

CAMP DOUGLAS   CLEAR     48  43  81 SE7       29.98F
$$

WIZ011>013-019>022-031-037>040-048>050-181300-
NORTHEAST WISCONSIN

CITY           SKY/WX    TMP DP  RH WIND       PRES   REMARKS
ANTIGO         CLEAR     43  41  94 S6        29.97S
6HR MIN TEMP:  42; 6HR MAX TEMP:  50;

SHAWANO        CLEAR     49  44  81 SW3       29.98F
6HR MIN TEMP:  49; 6HR MAX TEMP:  54;

OCONTO         CLEAR     44  42  93 CALM      29.99F
6HR MIN TEMP:  44; 6HR MAX TEMP:  54;

STURGEON BAY   CLEAR     51  43  74 S8        30.02S
6HR MIN TEMP:  51; 6HR MAX TEMP:  58;

GREEN BAY      CLEAR     51  46  83 S8        30.01F
6HR MIN TEMP:  51; 6HR MAX TEMP:  56;

MANITOWOC      CLEAR     47  42  83 S6        30.05S
6HR MIN TEMP:  47; 6HR MAX TEMP:  58;

APPLETON       CLEAR     48  39  71 SW10      30.01S
CLINTONVILLE   NOT AVBL
OSHKOSH        CLEAR     49  43  80 S12       30.02S
6HR MIN TEMP:  49; 6HR MAX TEMP:  54;

$$

WIZ032>034-041-042-053>061-181300-
SOUTHWEST WISCONSIN

CITY           SKY/WX    TMP DP  RH WIND       PRES   REMARKS
LA CROSSE      CLEAR     55  46  71 S13       29.95F
6HR MIN TEMP:  55; 6HR MAX TEMP:  59;

SPARTA         CLEAR     52  45  76 S10       29.97F
6HR MIN TEMP:  43; 6HR MAX TEMP:  55;

VIROQUA        CLEAR     49  45  86 S7        29.99S
6HR MIN TEMP:  49; 6HR MAX TEMP:  55;

BOSCOBEL       CLEAR     42  39  89 CALM      30.02F
6HR MIN TEMP:  39; 6HR MAX TEMP:  46;

PRAIRIE DU CHI CLEAR     51  43  72 E6        30.01S
6HR MIN TEMP:  51; 6HR MAX TEMP:  59;

PLATTEVILLE    CLEAR     48  45  87 S9        30.05S
6HR MIN TEMP:  47; 6HR MAX TEMP:  52;

$$

WIZ056-057-062-063-064-067-068-181300-
SOUTH CENTRAL WISCONSIN

CITY           SKY/WX    TMP DP  RH WIND       PRES   REMARKS
REEDSBURG      CLEAR     50  43  77 CALM      30.02S
6HR MIN TEMP:  49; 6HR MAX TEMP:  54;

BARABOO/DELLS  CLEAR     50  41  72 S8        30.03S
6HR MIN TEMP:  50; 6HR MAX TEMP:  54;

LONE ROCK      CLEAR     44  42  93 E5        30.04S
6HR MIN TEMP:  43; 6HR MAX TEMP:  54;

MINERAL POINT  CLEAR     48  45  87 S9        30.04F
MADISON        CLEAR     49  42  77 S10       30.06S
6HR MIN TEMP:  49; 6HR MAX TEMP:  55;

MIDDLETON      CLEAR     49  42  76 S8        30.06F
6HR MIN TEMP:  49; 6HR MAX TEMP:  55;

WATERTOWN      CLEAR     46  43  86 S8        30.07F
6HR MIN TEMP:  46; 6HR MAX TEMP:  53;

MONROE         CLEAR     46  39  76 S13       30.07S
JANESVILLE     CLEAR     50  41  71 S6        30.09F
$$

WIZ051-052-058>065-066-070>072-181300-
SOUTHEAST WISCONSIN

CITY           SKY/WX    TMP DP  RH WIND       PRES   REMARKS
MILWAUKEE      CLEAR     50  41  71 SW8       30.11S
6HR MIN TEMP:  50; 6HR MAX TEMP:  57;

WAUKESHA       CLEAR     48  39  71 SW6       30.10S
MILWAUKEE/TIMM CLEAR     48  37  66 S6        30.10S
RACINE         CLEAR     50  41  71 SW12      30.13S
6HR MIN TEMP:  50; 6HR MAX TEMP:  54;

BURLINGTON     CLEAR     45  41  86 SW5       30.12S
6HR MIN TEMP:  44; 6HR MAX TEMP:  52;

KENOSHA        CLEAR     49  40  71 SW8       30.13S
6HR MIN TEMP:  49; 6HR MAX TEMP:  53;

FOND DU LAC    CLEAR     52  40  63 S9        30.04S
6HR MIN TEMP:  52; 6HR MAX TEMP:  57;

SHEBOYGAN      CLEAR     47  43  86 S6        30.06S
6HR MIN TEMP:  47; 6HR MAX TEMP:  54;

WEST BEND      CLEAR     50  39  66 S7        30.07S
JUNEAU         CLEAR     47  41  79 S9        30.07F
6HR MIN TEMP:  47; 6HR MAX TEMP:  51;

$$

LSZ147-162-181300-
LAKE SUPERIOR

STATION/POSITION TIME  TEMP    WIND        PRES    WAVE
                       AIR SEA DIR/SP/G            HT/PER
                 (UTC) (F)     (DEG/KT/KT) (MB)    (FT/S)
W MID LAKE BUOY  1150   56 53              1007.5F   2/ 3
DEVILS ISLAND    1200   56     170/ 10/ 14 1007.3F
PORT WING        0940          210/  7/ 11 1009.1
SAXON HARBOR     1140   57     190/  7/ 14 1008.5F
$$

LMZ867-665-643>646-181300-
LAKE MICHIGAN

STATION/POSITION TIME  TEMP    WIND        PRES    WAVE
                       AIR SEA



USA.gov is the U.S. government's official web portal to all federal, state and local government web resources and services.